Volver al catálogo

STARLINK-36886

ActivoComunicacionesVLEO
NORAD 68175·PAYLOAD·🇺🇸 United States

Lanzado Mar 14, 2026 desde Vandenberg Space Force Base

Loading…

Próximos Pases (próximas 24 horas)

TLE

ActualizadoSource: CelesTrak SupGP

Época: Sep 15, 2026, 03:33 UTC

1 68175C 26050J   26258.14840278 -.00007059  00000+0 -20859-3 0  2584
2 68175  53.1574 102.5528 0001214  82.6186 110.1251 15.34389827    18

Sigue STARLINK-36886 en tiempo real con AllMySat

Download on the App Store